Overview Statistics Trail Chart Weather Telemetry Raw packets
 

This is the latest recevied weather packets stored in our database for station/object KC3UTO. If no packets are shown the sender has not sent any weather packets the latest 10 day(s).

<< 104 105 106 107 108 109 110 >>
Time Temp. Humidity Pressure Rain* Wind** Luminosity Snow
1787778690 27.78° C 52% 1016.3 hPa 0 mm - 88 W/m² -
1787778386 28.33° C 50% 1016.6 hPa 0 mm - 125 W/m² -
1787778081 27.78° C 51% 1016.4 hPa 0 mm - 167 W/m² -
1787777780 27.78° C 53% 1016.5 hPa 0 mm - 197 W/m² -
1787777478 27.22° C 52% 1016.6 hPa 0 mm - 180 W/m² -
1787777177 27.22° C 52% 1016.5 hPa 0 mm - 151 W/m² -
1787776876 27.22° C 52% 1016.5 hPa 0 mm - 141 W/m² -
1787776575 27.22° C 53% 1016.7 hPa 0 mm - 163 W/m² -
1787776274 27.22° C 53% 1016.5 hPa 0 mm - 185 W/m² -
1787775973 26.67° C 53% 1016.6 hPa 0 mm - 160 W/m² -
1787775668 27.22° C 53% 1016.6 hPa 0 mm - 128 W/m² -
1787775366 27.22° C 51% 1016.7 hPa 0 mm - 119 W/m² -
1787775061 27.22° C 52% 1016.4 hPa 0 mm - 125 W/m² -
1787774760 27.22° C 54% 1016.7 hPa 0 mm - 169 W/m² -
1787774455 27.78° C 54% 1016.7 hPa 0 mm - 156 W/m² -
1787774154 27.78° C 52% 1016.9 hPa 0 mm - 122 W/m² -
1787773853 27.78° C 49% 1016.9 hPa 0 mm - 118 W/m² -
1787773552 27.78° C 53% 1017 hPa 0 mm - 151 W/m² -
1787773249 27.78° C 50% 1016.7 hPa 0 mm - 163 W/m² -
1787772943 27.22° C 51% 1016.9 hPa 0 mm - 161 W/m² -
1787772639 27.78° C 50% 1016.8 hPa 0 mm - 159 W/m² -
1787772337 27.78° C 50% 1017 hPa 0 mm - 208 W/m² -
1787772037 28.89° C 47% 1016.7 hPa 0 mm - 158 W/m² -
1787771732 28.89° C 47% 1016.7 hPa 0 mm - 158 W/m² -
1787771430 28.89° C 46% 1017 hPa 0 mm - 154 W/m² -

* Rain latest hour (hover to see other rain measurements)
** Current wind speed in m/s (hover to see current wind gust speed)